Weather History for Monett, MO

Change the Weather History Date:

Friday, July 5, 2013

  Actual Average (KJLN) Record (KJLN)
Temperature  
Mean Temperature 73 °F 80 °F  
Max Temperature 87 °F 90 °F 105 °F (1954)
Min Temperature 59 °F 70 °F 51 °F (1972)
Degree Days  
Heating Degree Days 0 0  
Month to date heating degree days 0  
Since 1 June heating degree days 5  
Since 1 July heating degree days 0  
Cooling Degree Days 8 15  
Month to date cooling degree days 71  
Year to date cooling degree days 569  
Since 1 June cooling degree days 389  
Growing Degree Days 23 (Base 50)    
Moisture  
Dew Point 57 °F    
Average Humidity 59    
Maximum Humidity 88    
Minimum Humidity 31    
Precipitation  
Precipitation 0.00 in 0.14 in 2.00 in (1950)
Month to date precipitation 0.71  
Year to date precipitation 24.52  
Sea Level Pressure  
Sea Level Pressure 30.01 in    
Wind  
Wind Speed 7 mph (SSE)    
Max Wind Speed 10 mph    
Max Gust Speed 10 mph    
Visibility 10 miles    
Events      
T = Trace of Precipitation, MM = Missing Value Source: NWS Daily Summary

Daily Weather History Graph

Daily Weather History Graph

Search for Another Location

Airport:

Trip Planner

Search our weather history database for the weather conditions in past years. The results will help you decide how hot, cold, wet, or windy it might be!

Date:

Astronomy

Jul. 05, 2013 Rise Set
Actual Time 6:02 AM CDT 8:38 PM CDT
Civil Twilight 5:32 AM CDT 9:09 PM CDT
Nautical Twilight 4:54 AM CDT 9:47 PM CDT
Astronomical Twilight 4:11 AM CDT 10:29 PM CDT
Moon 4:00 AM CDT (7/5) 6:35 PM CDT (7/5)
Length of Visible Light 15h 37m
Length of Day
14h 36m
Waning Crescent, 6% of the Moon is Illuminated
Jul 5
Waning Crescent
Jul 8
New
Jul 15
First Quarter
Jul 22
Full
Jul 29
Last Quarter

Hourly Weather History & Observations

Time (CDT) Temp. Heat Index Dew Point Humidity Pressure Visibility Wind Dir Wind Speed Gust Speed Precip Events Conditions
12:15 AM 62.6 °F - 57.2 °F 82% 30.03 in 10.0 mi SE 6.9 mph - N/A   Clear
12:35 AM 62.6 °F - 57.2 °F 82% 30.03 in 10.0 mi ESE 6.9 mph - N/A   Clear
12:55 AM 62.6 °F - 57.2 °F 82% 30.03 in 10.0 mi SE 5.8 mph - N/A   Clear
1:15 AM 62.6 °F - 57.2 °F 82% 30.02 in 10.0 mi SE 5.8 mph - N/A   Clear
1:35 AM 62.6 °F - 55.4 °F 77% 30.02 in 10.0 mi ESE 5.8 mph - N/A   Clear
1:55 AM 60.8 °F - 55.4 °F 82% 30.02 in 10.0 mi SE 5.8 mph - N/A   Clear
2:15 AM 60.8 °F - 55.4 °F 82% 30.01 in 10.0 mi SE 5.8 mph - N/A   Clear
2:35 AM 62.6 °F - 55.4 °F 77% 30.02 in 10.0 mi SE 5.8 mph - N/A   Clear
2:55 AM 62.6 °F - 55.4 °F 77% 30.01 in 10.0 mi ESE 6.9 mph - N/A   Clear
3:15 AM 60.8 °F - 55.4 °F 82% 30.02 in 10.0 mi SE 5.8 mph - N/A   Clear
3:35 AM 60.8 °F - 55.4 °F 82% 30.02 in 10.0 mi ESE 6.9 mph - N/A   Clear
3:55 AM 60.8 °F - 55.4 °F 82% 30.02 in 10.0 mi ESE 6.9 mph - N/A   Clear
4:15 AM 60.8 °F - 55.4 °F 82% 30.02 in 10.0 mi ESE 8.1 mph - N/A   Clear
4:35 AM 60.8 °F - 55.4 °F 82% 30.02 in 10.0 mi SE 6.9 mph - N/A   Clear
4:55 AM 60.8 °F - 55.4 °F 82% 30.02 in 10.0 mi ESE 8.1 mph - N/A   Clear
5:15 AM 60.8 °F - 55.4 °F 82% 30.03 in 10.0 mi ESE 8.1 mph - N/A   Clear
5:35 AM 60.8 °F - 55.4 °F 82% 30.03 in 10.0 mi SE 6.9 mph - N/A   Clear
5:55 AM 60.8 °F - 55.4 °F 82% 30.03 in 10.0 mi ESE 8.1 mph - N/A   Clear
6:15 AM 59.0 °F - 55.4 °F 88% 30.03 in 10.0 mi SE 8.1 mph - N/A   Clear
6:35 AM 60.8 °F - 55.4 °F 82% 30.04 in 10.0 mi SE 5.8 mph - N/A   Clear
6:55 AM 62.6 °F - 55.4 °F 77% 30.04 in 10.0 mi SE 5.8 mph - N/A   Clear
7:15 AM 62.6 °F - 57.2 °F 82% 30.04 in 10.0 mi SE 4.6 mph - N/A   Clear
7:35 AM 66.2 °F - 59.0 °F 78% 30.05 in 10.0 mi SSE 5.8 mph - N/A   Clear
7:55 AM 68.0 °F - 59.0 °F 73% 30.06 in 10.0 mi SSE 5.8 mph - N/A   Clear
8:15 AM 69.8 °F - 59.0 °F 68% 30.06 in 10.0 mi SE 5.8 mph - N/A   Clear
8:35 AM 71.6 °F - 60.8 °F 69% 30.06 in 10.0 mi SSE 6.9 mph - N/A   Clear
8:55 AM 73.4 °F - 59.0 °F 61% 30.07 in 10.0 mi South 5.8 mph - N/A   Clear
9:15 AM 75.2 °F - 60.8 °F 61% 30.07 in 10.0 mi South 9.2 mph - N/A   Clear
9:35 AM 77.0 °F - 60.8 °F 57% 30.06 in 10.0 mi South 8.1 mph - N/A   Clear
9:55 AM 78.8 °F - 60.8 °F 54% 30.06 in 10.0 mi SSW 6.9 mph - N/A   Clear
10:15 AM 78.8 °F - 59.0 °F 51% 30.06 in 10.0 mi SSW 8.1 mph - N/A   Clear
10:35 AM 80.6 °F 81.1 °F 59.0 °F 48% 30.05 in 10.0 mi SSW 8.1 mph - N/A   Clear
10:55 AM 80.6 °F 80.8 °F 57.2 °F 45% 30.05 in 10.0 mi South 9.2 mph - N/A   Clear
11:15 AM 82.4 °F 82.0 °F 57.2 °F 42% 30.05 in 10.0 mi South 9.2 mph - N/A   Clear
11:35 AM 82.4 °F 82.5 °F 59.0 °F 45% 30.05 in 10.0 mi SSW 10.4 mph - N/A   Clear
11:55 AM 82.4 °F 82.5 °F 59.0 °F 45% 30.05 in 10.0 mi South 9.2 mph - N/A   Clear
12:15 PM 82.4 °F 82.5 °F 59.0 °F 45% 30.05 in 10.0 mi South 8.1 mph - N/A   Clear
12:35 PM 84.2 °F 83.0 °F 55.4 °F 37% 30.05 in 10.0 mi SSW 9.2 mph - N/A   Clear
12:55 PM 84.2 °F 83.0 °F 55.4 °F 37% 30.05 in 10.0 mi SSW 5.8 mph - N/A   Clear
1:15 PM 84.2 °F 83.0 °F 55.4 °F 37% 30.04 in 10.0 mi South 5.8 mph - N/A   Scattered Clouds
1:35 PM 86.0 °F 84.5 °F 55.4 °F 35% 30.04 in 10.0 mi SSW 4.6 mph 10.4 mph N/A   Scattered Clouds
1:55 PM 86.0 °F 84.5 °F 55.4 °F 35% 30.03 in 10.0 mi WSW 8.1 mph - N/A   Clear
2:15 PM 86.0 °F 84.9 °F 57.2 °F 37% 30.03 in 10.0 mi South 5.8 mph - N/A   Scattered Clouds
2:35 PM 86.0 °F 84.2 °F 53.6 °F 33% 30.02 in 10.0 mi SSW 6.9 mph - N/A   Scattered Clouds
2:55 PM 86.0 °F 84.5 °F 55.4 °F 35% 30.01 in 10.0 mi South 9.2 mph - N/A   Clear
3:15 PM 86.0 °F 84.5 °F 55.4 °F 35% 30.01 in 10.0 mi SSE 5.8 mph - N/A   Clear
3:35 PM 86.0 °F 84.5 °F 55.4 °F 35% 30.00 in 10.0 mi SSW 6.9 mph - N/A   Clear
3:55 PM 87.8 °F 85.7 °F 53.6 °F 31% 30.00 in 10.0 mi South 5.8 mph - N/A   Clear
4:15 PM 87.8 °F 86.5 °F 57.2 °F 35% 30.00 in 10.0 mi South 6.9 mph - N/A   Clear
4:35 PM 87.8 °F 86.1 °F 55.4 °F 33% 29.99 in 10.0 mi SSW 9.2 mph - N/A   Clear
4:55 PM 87.8 °F 86.1 °F 55.4 °F 33% 29.99 in 10.0 mi SSE 8.1 mph - N/A   Clear
5:15 PM 86.0 °F 84.5 °F 55.4 °F 35% 29.98 in 10.0 mi South 9.2 mph - N/A   Clear
5:35 PM 86.0 °F 84.5 °F 55.4 °F 35% 29.97 in 10.0 mi South 6.9 mph - N/A   Clear
5:55 PM 86.0 °F 84.5 °F 55.4 °F 35% 29.97 in 10.0 mi SSW 8.1 mph - N/A   Clear
6:15 PM 86.0 °F 84.5 °F 55.4 °F 35% 29.96 in 10.0 mi South 5.8 mph - N/A   Clear
6:35 PM 86.0 °F 84.9 °F 57.2 °F 37% 29.96 in 10.0 mi SSW 8.1 mph - N/A   Clear
6:55 PM 84.2 °F 83.8 °F 59.0 °F 42% 29.96 in 10.0 mi SSW 4.6 mph - N/A   Clear
7:15 PM 82.4 °F 82.5 °F 59.0 °F 45% 29.96 in 10.0 mi South 4.6 mph - N/A   Clear
7:35 PM 80.6 °F 81.5 °F 60.8 °F 51% 29.96 in 10.0 mi ESE 3.5 mph - N/A   Clear
7:55 PM 78.8 °F - 59.0 °F 51% 29.96 in 10.0 mi ESE 6.9 mph - N/A   Clear
8:15 PM 77.0 °F - 60.8 °F 57% 29.96 in 10.0 mi ESE 6.9 mph - N/A   Clear
8:35 PM 77.0 °F - 60.8 °F 57% 29.96 in 10.0 mi ESE 6.9 mph - N/A   Clear
8:55 PM 73.4 °F - 60.8 °F 65% 29.96 in 10.0 mi ESE 6.9 mph - N/A   Clear
9:15 PM 73.4 °F - 59.0 °F 61% 29.96 in 10.0 mi SE 5.8 mph - N/A   Clear
9:35 PM 71.6 °F - 59.0 °F 64% 29.97 in 10.0 mi ESE 8.1 mph - N/A   Clear
9:55 PM 71.6 °F - 59.0 °F 64% 29.97 in 10.0 mi ESE 8.1 mph - N/A   Clear
10:15 PM 71.6 °F - 57.2 °F 60% 29.98 in 10.0 mi SE 6.9 mph - N/A   Clear
10:35 PM 69.8 °F - 57.2 °F 64% 29.99 in 10.0 mi SE 6.9 mph - N/A   Clear
10:55 PM 69.8 °F - 57.2 °F 64% 29.99 in 10.0 mi SE 6.9 mph - N/A   Clear
11:15 PM 69.8 °F - 57.2 °F 64% 30.00 in 10.0 mi SE 6.9 mph - N/A   Clear
11:35 PM 69.8 °F - 57.2 °F 64% 30.00 in 10.0 mi ESE 6.9 mph - N/A   Clear
11:55 PM 68.0 °F - 57.2 °F 68% 30.00 in 10.0 mi SE 6.9 mph - N/A   Clear